EHI
0 0 0 0 0 0 0 0 0 0 0 0 0 0 0 0 0 0 0 0 0 0 0 0 0 0 0 0 0 0 0 0 0 0 0 0 0 0 0 0 0 0 0
0 0 0 0 0 0 0 0 0 0 0 0 0 0 0 0 0 0 0 0 0 0 0 0 0 0 0 0 0 0 0 0 0 0 0 0 0 0 0 0 0 0 0
0 0 0 0 0 0 0 0 0 0 0 0 0 0 0 0 0 0 0 0 0 0 0 0 0 0 0 0 0 0 0 0 0 0 0 0 0 0 0 0 0 0 0
0 0 0 0 0 0 0 0 0 0 0 0 0 0 0 0 0 0 0 0 0 0 0 0 0 0 0 0 0 0 0 0 0 0 0 0 0 0 0 0 0 0 0
0 0 0 0 0 0 0 0 0 0 0 0 0 0 0 0 0 0 0 0 0 0 0 0 0 0 0 0 0 0 0 0 0 0 0 0 0 0 0 0 0 0 0
0 0 0 0 0 0 0 0 0 0 0 0 0 0 0 0 0 0 0 0 0 0 0 0 0 0 0 0 0 0 0 0 0 0 0 0 0 0 0 0 0 0 0
0 0 0 0 0 0 0 0 0 0 0 0 0 0 0 0 0 0 0 0 0 0 0 0 0 0 0 0 0 0 0 0 0 0 0 0 0 0 0 0 0 0 0
0 0 0 0 0 0 0 0 0 0 0 0 0 0 0 0 0 0 0 0 0 0 0 0 0 0 0 0 0 0 0 0 0 0 0 0 0 0 0 0 0 0 0
0 0 0 0 0 0 0 0 0 0 0 0 0 0 0 0 0 0 0 0 0 0 0 0 0 0 0 0 0 0 0 0 0 0 0 0 0 0 0 0 0 0 0
0 0 0 0 0 0 0 0 0 0 0 0 0 0 0 0 0 0 0 0 0 0 0 0 0 0 0 0 0 0 0 0 0 0 0 0 0 0 0 0 0 0 0
0 0 0 0 0 0 0 0 0 0 0 0 0 0 0 0 0 0 0 0 0 0 0 0 0 0 0 0 0 0 0 0 0 0 0 0 0 0 0 0 0 0 0
0 0 0 0 0 0 0 0 0 0 0 0 0 0 0 0 0 0 0 0 0 0 0 0 0 0 0 0 0 0 0 0 0 0 0 0 0 0 0 0 0 0 0
0 0 0 0 0 0 0 0 0 0 0 0 0 0 0 0 0 0 0 0 0 0 0 0 0 0 0 0 0 0 0 0 0 0 0 0 0 0 0 0 0 0 0
0 0 0 0 0 0 0 0 0 0 0 0 0 0 0 0 0 0 0 0 0 0 0 0 0 0 0 0 0 0 0 0 0 0 0 0 0 0 0 0 0 0 0
0 0 0 0 0 0 0 0 0 0 0 0 0 0 0 0 0 0 0 0 0 0 0 0 0 0 0 0 0 0 0 0 0 0 0 0 0 0 0 0 0 0 0
0 0 0 0 0 0 0 0 0 0 0 0 0 0 0 0 0 0 0 0 0 0 0 0 0 0 0 0 0 0 0 0 0 0 0 0 0 0 0 0 0 0 0
0 0 0 0 0 0 0 0 0 0 0 0 0 0 0 0 0 0 0 0 0 0 0 0 0 0 0 0 0 0 0 0 0 0 0 0 0 0 0 0 0 0 0
0 0 0 0 0 0 0 0 0 0 0 0 0 0 0 0 0 0 0 0 0 0 0 0 0 0 0 0 0 0 0 0 0 0 0 0 0 0 0 0 0 0 0
0 0 0 0 0 0 0 0 0 0 0 0 0 0 0 0 0 0 0 0 0 0 0 0 0 0 0 0 0 0 0 0 0 0 0 0 0 0 0 0 0 0 0
0 0 0 0 0 0 0 0 0 0 0 0 0 0 0 0 0 0 0 0 0 0 0 0 0 0 0 0 0 0 0 0 0 0 0 0 0 0 0 0 0 0 0
0 0 0 0 0 0 0 0 0 0 0 0 0 0 0 0 0 0 0 0 0 0 0 0 0 0 0 0 0 0 0 0 0 0 0 0 0 0 0 0 0 0 0
0 0 0 0 0 0 0 0 0 0 0 0 0 0 0 0 0 0 0 0 0 0 0 0 0 0 0 0 0 0 0 0 0 0 0 0 0 0 0 0 0 0 0
0 0 0 0 0 0 0 0 0 0 0 0 0 0 0 0 0 0 0 0 0 0 0 0 0 0 0 0 0 0 0 0 0 0 0 0 0 0 0 0 0 0 0
0 0 0 0 0 0 0 0 0 0 0 0 0 0 0 0 0 0 0 0 0 0 0 0 0 0 0 0 0 0 0 0 0 0 0 0 0 0 0 0 0 0 0
0 0 0 0 0 0 0 0 0 0 0 0 0 0 0 0 0 0 0 0 0 0 0 0 0 0 0 0 0 0 0 0 0 0 0 0 0 0 0 0 0 0 0
0 0 0 0 0 0 0 0 0 0 0 0 0 0 0 0 0 0 0 0 0 0 0 0 0 0 0 0 0 0 0 0 0 0 0 0 0 0 0 0 0 0 0
Wind_Speed
4 4 4 4 4 5 5 5 5 4 4 5 5 5 5 6 6 5 6 6 6 5 5 6 6 4 4 3 3 3 2 2 4 2 1 1 3 3 2 1 2 2 3
4 3 3 4 4 5 5 5 5 5 5 5 5 6 6 6 6 7 7 7 7 7 7 7 6 5 5 4 4 4 3 3 3 4 2 2 3 4 3 2 2 2 2
3 3 4 4 4 5 5 5 5 5 5 5 5 6 6 7 7 7 7 7 8 8 8 8 7 7 6 5 5 4 4 3 3 3 3 2 2 2 2 2 2 2 2
3 3 4 4 4 4 4 4 5 5 5 6 6 6 7 7 7 8 8 8 8 7 8 8 8 8 8 7 6 6 4 4 3 3 3 2 2 2 2 2 2 2 2
4 4 4 4 4 4 4 4 4 5 5 5 6 6 6 6 7 9 9 9 8 7 7 8 8 9 10 8 6 6 5 5 4 3 3 2 2 3 4 2 2 1 2
4 4 4 4 3 3 3 3 3 4 4 4 5 6 6 6 9 12 9 8 8 8 8 8 8 9 10 11 10 9 8 7 6 5 4 5 5 4 3 3 2 2 2
4 4 4 4 4 4 4 3 3 3 3 4 4 5 5 6 10 11 11 7 7 7 8 7 6 7 9 7 8 9 8 9 8 6 6 6 5 5 5 4 4 3 3
5 4 4 4 4 4 4 4 3 3 3 3 3 3 4 5 8 8 9 6 6 7 7 8 8 7 8 8 7 6 6 6 7 6 6 6 5 4 5 4 4 2 1
6 6 5 4 4 4 4 4 3 3 3 3 3 3 3 4 6 7 7 4 5 6 6 6 7 7 9 10 8 7 6 5 5 6 6 6 6 6 4 3 3 2 2
6 6 5 5 4 4 4 4 4 3 3 3 3 2 3 3 5 5 5 3 4 4 4 5 8 8 9 10 8 8 7 6 4 4 4 5 4 5 6 4 4 4 2
6 6 6 5 4 4 3 3 3 3 3 3 3 3 2 3 3 3 4 2 3 3 3 3 4 7 9 9 8 7 8 6 5 4 4 3 2 3 3 3 3 3 3
6 6 6 6 5 4 4 4 3 3 3 3 3 4 3 3 3 2 3 3 3 3 3 2 3 6 7 8 7 7 8 6 4 4 4 3 3 3 3 3 2 2 3
7 7 7 6 5 5 4 4 3 3 2 3 3 3 3 3 3 4 4 3 2 1 2 3 3 5 6 4 5 6 5 4 4 4 4 3 3 3 2 1 1 1 1
7 7 6 6 6 6 5 4 3 3 3 3 3 3 3 3 3 2 2 1 2 1 1 1 1 2 2 2 2 2 2 3 3 4 3 2 2 2 2 2 2 2 1
6 6 6 5 5 5 5 4 4 3 4 4 3 2 2 3 4 4 2 1 1 1 1 1 1 1 1 1 1 1 1 1 2 2 3 3 2 2 2 2 2 2 2
6 5 4 4 4 4 4 5 7 7 8 8 8 6 4 5 6 5 4 3 2 1 0 1 1 1 1 1 1 1 1 2 2 2 2 2 2 2 2 2 1 2 2
5 5 4 4 4 4 4 4 5 6 8 9 10 9 8 8 7 7 5 4 4 2 2 1 1 1 0 0 1 1 1 1 1 2 2 2 2 2 2 2 2 2 2
5 5 5 4 3 3 3 4 4 4 5 5 7 10 10 9 9 8 7 5 4 3 2 1 1 1 0 0 0 1 1 1 1 1 2 2 2 2 2 2 3 3 3
5 4 4 4 3 3 3 3 3 4 4 4 5 6 10 9 9 9 8 4 3 2 2 1 1 1 0 0 1 1 1 1 2 2 2 2 2 2 2 3 3 4 3
4 7 6 4 4 4 3 3 3 3 4 4 4 5 6 6 5 6 5 4 3 3 2 2 1 1 0 0 1 1 1 2 2 2 2 2 2 3 3 3 3 3 3
4 5 7 5 4 4 3 3 3 3 3 4 4 5 8 4 4 4 4 4 3 2 2 2 1 1 1 1 1 1 1 2 2 2 2 2 2 3 3 3 3 3 3
3 3 3 3 3 4 4 3 3 3 4 4 4 5 8 5 4 4 3 3 3 2 2 1 1 1 1 1 1 1 1 2 2 2 3 3 3 3 3 3 3 3 2
3 3 3 3 3 5 5 4 4 4 4 4 4 4 4 4 4 4 4 3 3 3 2 2 1 2 2 1 1 1 2 2 2 3 3 3 3 3 3 3 4 3 3
3 3 3 3 3 3 3 4 4 4 4 4 4 4 4 4 4 4 4 4 3 3 3 2 2 3 3 3 2 2 2 3 3 3 4 4 4 4 4 3 4 4 4
2 3 3 3 3 3 3 3 4 4 4 4 4 4 4 4 4 4 4 4 4 4 4 4 3 3 3 4 4 3 5 6 5 3 3 4 4 4 4 4 4 4 3
3 3 3 3 3 3 3 3 4 4 4 4 4 4 4 4 4 4 4 4 4 4 4 4 4 5 5 4 5 6 8 8 7 7 4 3 4 4 4 4 4 4 4
Wind_Direction
273 264 260 250 244 242 239 232 228 232 234 230 227 227 225 221 213 212 216 210 209 212 209 202 208 201 203 205 198 197 208 204 224 250 231 222 207 211 242 245 234 227 233
280 271 265 263 252 246 241 237 232 232 234 234 231 231 228 221 214 213 217 211 209 210 207 203 207 201 209 207 201 206 209 209 209 232 244 213 222 208 207 224 253 252 233
295 283 275 271 261 250 246 241 235 233 235 235 232 231 230 224 219 220 220 217 214 213 207 204 204 198 210 210 207 209 212 216 209 212 237 218 226 210 199 228 239 244 258
300 288 278 276 271 268 259 245 239 235 236 234 235 235 234 229 224 223 221 219 217 215 212 207 205 202 208 209 210 211 209 210 212 209 231 215 207 205 193 209 241 230 250
300 291 284 284 286 284 272 254 244 238 240 237 237 240 238 230 224 221 221 218 215 216 215 211 210 209 213 213 212 206 201 202 204 211 222 211 204 200 208 206 236 247 261
307 303 307 310 305 296 285 271 255 246 246 240 241 242 240 240 238 234 227 218 214 213 216 214 214 214 219 223 226 222 211 201 203 203 217 215 211 207 202 206 211 228 247
319 317 320 316 311 309 305 296 278 266 255 250 246 240 243 248 245 239 234 223 213 213 215 214 217 216 214 209 221 228 229 230 221 204 212 215 206 201 194 200 211 220 239
330 330 324 322 316 316 309 300 294 285 275 268 261 252 253 262 260 250 240 226 216 218 216 211 211 212 209 202 200 210 220 226 229 221 214 216 210 201 202 206 207 213 279
334 330 327 325 321 320 315 311 306 301 295 282 272 264 261 280 279 264 241 210 211 217 219 215 212 209 213 210 203 206 215 227 236 232 230 229 220 216 204 173 178 197 250
331 328 329 328 323 318 314 314 315 314 307 300 301 293 276 278 285 278 246 208 212 214 215 216 220 217 214 213 205 200 210 215 207 212 229 236 220 212 214 202 192 201 220
331 334 335 335 329 323 324 325 329 332 337 337 331 328 316 297 290 284 258 221 211 209 210 211 211 219 221 219 215 207 214 208 195 202 204 197 195 197 203 209 208 207 210
341 343 344 344 340 344 347 345 346 348 348 349 353 348 345 334 329 302 272 249 228 201 208 213 210 218 223 224 222 219 223 219 197 192 189 192 195 202 204 203 211 221 230
350 350 349 350 353 355 354 350 351 357 354 348 351 348 345 348 341 328 310 287 255 226 204 199 219 219 219 222 223 227 228 209 194 191 194 201 196 187 175 176 197 216 261
351 348 350 355 358 1 359 357 359 355 351 347 346 341 338 340 337 331 319 294 279 272 263 206 222 224 217 208 225 241 230 206 193 193 188 183 163 170 187 190 197 203 232
351 350 353 357 358 359 2 3 359 360 351 347 341 327 331 334 335 333 334 309 250 207 151 82 96 128 158 177 180 185 199 185 190 180 179 181 184 189 199 190 195 202 224
352 354 353 352 355 358 359 360 4 3 2 5 5 358 346 351 350 350 352 4 10 37 98 114 123 135 165 191 201 205 200 189 190 188 185 186 189 192 199 200 206 210 225
351 347 347 350 351 353 356 359 354 359 8 13 12 9 9 6 7 5 6 18 22 29 68 89 107 130 149 161 187 197 206 203 186 184 189 190 193 195 196 204 211 217 230
349 350 350 346 345 349 352 350 349 355 357 357 358 4 8 11 14 16 16 19 19 25 46 68 77 79 106 167 190 207 206 181 172 176 179 184 188 191 198 210 214 217 227
348 346 344 343 346 350 350 349 352 357 357 350 352 359 5 10 15 17 16 24 24 26 28 36 47 61 55 250 217 207 203 199 194 189 190 194 197 197 207 216 221 237 238
346 348 350 346 349 353 352 354 356 356 355 355 356 352 350 1 9 8 14 20 23 20 16 12 11 11 342 303 274 222 205 207 207 206 209 208 208 206 213 217 220 229 234
340 342 349 351 350 346 347 351 352 352 351 348 348 347 354 2 2 1 4 7 4 359 355 350 348 349 334 308 286 251 228 221 211 212 216 216 213 214 221 224 224 227 231
334 337 342 343 342 345 346 346 349 350 350 347 342 346 354 2 358 354 352 350 346 340 336 334 334 329 315 293 279 254 239 236 226 218 219 218 216 217 219 220 223 228 229
338 340 342 342 343 345 351 352 351 347 343 341 340 343 348 351 349 345 341 338 338 337 334 334 327 324 321 305 284 254 243 244 237 227 223 219 216 217 215 217 219 222 228
343 342 343 341 341 341 342 342 342 341 340 338 336 336 338 338 336 334 333 332 332 332 333 325 309 300 297 294 285 272 260 255 242 231 221 218 220 222 218 218 223 225 225
346 342 339 335 334 334 334 333 332 331 330 330 330 330 330 330 329 328 328 329 327 326 325 321 312 300 292 289 290 286 288 285 274 246 217 217 222 222 221 221 223 225 227
344 339 334 331 329 328 325 322 321 320 318 318 319 320 320 321 320 320 322 323 322 318 314 311 307 303 297 288 284 287 290 287 281 269 240 219 219 224 222 226 226 226 225